DW4563 Weather Reports


Display with metric or nautical units.
time (UTC)temp
F
wind
direction
speed
MPH
gust
MPH
rain 1hr
in
rain 24hr
in
rain mn
in
humidity
%
barometer
mb
20260506211803 46 71 1.0 2.0 0.00 0.00 0.00 81 1012.3
20260506210803 46 67 1.0 2.0 0.00 0.00 0.00 81 1012.4
20260506210303 47 287 1.0 3.0 0.00 0.00 0.00 81 1012.3
20260506204304 47 269 1.0 2.0 0.00 0.00 0.00 80 1012.3
20260506203804 47 258 1.0 3.0 0.00 0.00 0.00 79 1012.3
20260506203303 47 263 1.0 3.0 0.00 0.00 0.00 79 1012.3
20260506201803 48 6 1.0 3.0 0.00 0.00 0.00 78 1012.2
20260506200803 48 42 1.0 3.0 0.00 0.00 0.00 78 1012.1
20260506194804 49 228 1.0 3.0 0.00 0.00 0.00 77 1011.9
20260506193304 50 101 1.0 3.0 0.00 0.00 0.00 75 1011.9
20260506191303 51 88 2.0 6.0 0.00 0.00 0.00 73 1011.7
20260506190804 51 33 3.0 6.0 0.00 0.00 0.00 73 1011.6
20260506190304 51 85 2.0 8.0 0.00 0.00 0.00 72 1011.5
20260506183804 52 70 1.0 7.0 0.00 0.00 0.00 70 1011.1
20260506181304 53 117 3.0 8.0 0.00 0.00 0.00 67 1010.9
20260506180803 53 62 3.0 8.0 0.00 0.00 0.00 66 1010.8
20260506174803 53 188 2.0 8.0 0.00 0.00 0.00 67 1010.6
20260506171804 54 81 3.0 8.0 0.00 0.00 0.00 65 1010.3
20260506170304 55 95 3.0 12.0 0.00 0.00 0.00 65 1010.2
20260506163803 57 79 3.0 12.0 0.00 0.00 0.00 62 1010.1
20260506163304 57 80 6.0 12.0 0.00 0.00 0.00 60 1010.1
20260506154806 56 144 3.0 12.0 0.00 0.00 0.00 67 1010.0
20260506154304 56 56 6.0 13.0 0.00 0.00 0.00 66 1010.0
20260506153804 56 61 5.0 13.0 0.00 0.00 0.00 67 1010.0
20260506153303 56 107 3.0 12.0 0.00 0.00 0.00 68 1010.0
20260506151803 57 193 3.0 9.0 0.00 0.00 0.00 68 1009.9
20260506151304 57 127 3.0 9.0 0.00 0.00 0.00 67 1009.9
20260506150804 57 117 3.0 9.0 0.00 0.00 0.00 68 1010.0
20260506150305 57 109 5.0 9.0 0.00 0.00 0.00 68 1009.9
20260506144803 57 103 5.0 12.0 0.00 0.00 0.00 67 1009.8
20260506144303 57 87 3.0 9.0 0.00 0.00 0.00 68 1009.7
20260506143814 57 70 5.0 12.0 0.00 0.00 0.00 68 1009.8
20260506141804 57 105 3.0 12.0 0.00 0.00 0.00 68 1009.7
20260506141303 57 146 3.0 12.0 0.00 0.00 0.00 67 1009.7
20260506140304 57 229 3.0 9.0 0.00 0.00 0.00 65 1009.7
20260506134303 57 176 4.0 12.0 0.00 0.00 0.00 63 1009.6
20260506133304 57 218 3.0 12.0 0.00 0.00 0.00 64 1009.7
20260506130303 57 86 3.0 7.0 0.00 0.00 0.00 62 1009.6
20260506124804 56 72 2.0 9.0 0.00 0.00 0.00 59 1009.6
20260506124304 56 60 5.0 9.0 0.00 0.00 0.00 56 1009.6
20260506123804 56 71 3.0 10.0 0.00 0.00 0.00 55 1009.6
20260506123304 56 51 4.0 10.0 0.00 0.00 0.00 54 1009.6
20260506121803 56 69 2.0 12.0 0.00 0.00 0.00 54 1009.5
20260506120803 56 68 6.0 14.0 0.00 0.00 0.00 52 1009.5
20260506114804 56 83 5.0 12.0 0.00 0.00 0.00 52 1009.4
20260506113804 56 74 3.0 16.0 0.00 0.00 0.00 53 1009.4
20260506113303 56 59 6.0 16.0 0.00 0.00 0.00 53 1009.4
20260506110303 56 89 8.0 15.0 0.00 0.00 0.00 54 1009.3
20260506104803 55 79 5.0 13.0 0.00 0.00 0.00 58 1009.2
20260506103804 55 58 5.0 14.0 0.00 0.00 0.00 58 1009.3
20260506101304 54 72 3.0 12.0 0.00 0.00 0.00 62 1009.2
20260506094803 53 108 4.0 9.0 0.00 0.00 0.00 65 1009.2
20260506093804 53 88 4.0 9.0 0.00 0.00 0.00 65 1009.1
20260506093303 53 69 3.0 9.0 0.00 0.00 0.00 63 1009.1
20260506091804 54 79 3.0 8.0 0.00 0.00 0.00 64 1009.0
20260506091304 53 79 4.0 8.0 0.00 0.00 0.00 65 1009.0
20260506090303 53 80 5.0 12.0 0.00 0.00 0.00 65 1009.0
20260506084303 53 66 4.0 13.0 0.00 0.00 0.00 65 1008.9
20260506081804 53 66 8.0 15.0 0.00 0.00 0.00 64 1008.9
20260506081304 53 78 3.0 12.0 0.00 0.00 0.00 65 1008.8
20260506080814 53 70 5.0 12.0 0.00 0.00 0.00 64 1008.8
20260506071803 53 56 3.0 12.0 0.00 0.00 0.00 75 1008.6
20260506071304 52 81 3.0 12.0 0.00 0.00 0.00 77 1008.6
20260506070803 52 62 6.0 12.0 0.00 0.00 0.00 77 1008.6
20260506070303 52 67 2.0 7.0 0.00 0.00 0.00 79 1008.5
20260506061804 51 52 1.0 3.0 0.00 0.00 0.00 84 1008.5
20260506061303 50 145 1.0 6.0 0.00 0.00 0.00 85 1008.5
20260506060305 49 104 1.0 3.0 0.00 0.00 0.00 87 1008.5
20260506050315 47 96 1.0 3.0 0.00 0.00 0.00 88 1008.4
20260506044303 47 221 2.0 3.0 0.00 0.00 0.00 87 1008.4
20260506043803 47 46 1.0 3.0 0.00 0.00 0.00 87 1008.4
20260506041803 47 136 1.0 3.0 0.00 0.00 0.00 87 1008.4
20260506041303 47 184 1.0 3.0 0.00 0.00 0.00 87 1008.4
20260506040804 47 109 1.0 3.0 0.00 0.00 0.00 87 1008.4
20260506040303 47 256 1.0 2.0 0.00 0.00 0.00 86 1008.4
20260506034803 47 107 1.0 3.0 0.00 0.00 0.00 86 1008.4
20260506033803 47 262 1.0 3.0 0.00 0.00 0.00 86 1008.4
20260506030303 48 359 1.0 3.0 0.00 0.00 0.00 85 1008.7
20260506024804 48 352 1.0 3.0 0.00 0.00 0.00 84 1008.7
20260506024303 48 330 1.0 3.0 0.00 0.00 0.00 84 1008.8
20260506021804 49 57 1.0 3.0 0.00 0.00 0.00 84 1008.8
20260506014304 49 180 1.0 3.0 0.00 0.00 0.00 83 1009.0
20260506013804 49 357 1.0 3.0 0.00 0.00 0.00 83 1009.0
20260506010803 50 88 1.0 5.0 0.00 0.00 0.00 82 1009.2
20260506010304 50 59 2.0 5.0 0.00 0.00 0.00 82 1009.2
20260506004804 50 65 1.0 3.0 0.00 0.00 0.00 82 1009.3
20260506004303 50 85 1.0 3.0 0.00 0.00 0.00 82 1009.3
20260506003804 50 107 1.0 3.0 0.00 0.00 0.00 82 1009.4
20260506003304 50 68 1.0 3.0 0.00 0.00 0.00 82 1009.5
20260506001803 50 82 2.0 3.0 0.00 0.00 0.00 81 1009.7
20260506001303 50 87 1.0 3.0 0.00 0.00 0.00 81 1009.7
20260506000803 50 168 2.0 3.0 0.00 0.00 0.00 81 1009.8
20260505233804 50 85 2.0 10.0 0.00 0.00 0.00 81 1009.9
20260505233304 50 72 3.0 10.0 0.00 0.00 0.00 81 1009.8
20260505230804 50 112 2.0 8.0 0.00 0.00 0.00 81 1009.9
20260505224803 50 110 2.0 6.0 0.00 0.00 0.00 81 1010.1
20260505224303 50 92 2.0 7.0 0.00 0.00 0.00 80 1010.1
20260505223304 50 59 2.0 7.0 0.00 0.00 0.00 80 1010.2
20260505221804 50 66 2.0 6.0 0.00 0.00 0.00 80 1010.3
20260505221303 50 180 2.0 3.0 0.00 0.00 0.00 80 1010.3
20260505220810 50 71 2.0 5.0 0.00 0.00 0.00 79 1010.4
20260505220304 50 77 2.0 5.0 0.00 0.00 0.00 80 1010.4
20260505214303 50 179 2.0 5.0 0.00 0.00 0.00 79 1010.5
20260505213304 50 143 3.0 6.0 0.00 0.00 0.00 79 1010.6